Voltar ao catálogo

STARLINK-33992

AtivoComunicaçõesVLEO
NORAD 64026·PAYLOAD·🇺🇸 United States

Lançado May 16, 2025 de Vandenberg Space Force Base

Loading…

Próximas Passagens (próximas 24 horas)

TLE

AtualizadoSource: CelesTrak SupGP

Época: Sep 14, 2026, 20:37 UTC

1 64026C 25102E   26257.85951389 -.00023032  00000+0 -80149-3 0  2571
2 64026  70.0010 355.9571 0003214 272.9843 190.4351 15.29578588    10

Acompanhe STARLINK-33992 em tempo real com AllMySat

Download on the App Store